Year,Month,Day,Hour,Minute,Value (Times are PST for temperature in C)
2016,02,18,08,40,7.10
2016,02,18,08,41,7.10
2016,02,18,08,42,7.10
2016,02,18,08,43,7.10
2016,02,18,08,44,7.10
2016,02,18,08,45,7.10
2016,02,18,08,46,7.20
2016,02,18,08,47,7.20
2016,02,18,08,48,7.20
2016,02,18,08,49,7.20
2016,02,18,08,50,7.20
2016,02,18,08,51,7.20
2016,02,18,08,52,7.20
2016,02,18,08,53,7.20
2016,02,18,08,54,7.20
2016,02,18,08,55,7.20
2016,02,18,08,56,7.20
2016,02,18,08,57,7.20
2016,02,18,08,58,7.20
2016,02,18,10,22,8.20
2016,02,18,10,23,8.20
2016,02,18,10,24,8.20
2016,02,18,10,25,8.20
2016,02,18,10,26,8.20
2016,02,18,10,27,8.20
2016,02,18,10,28,8.20
2016,02,18,10,29,8.20
2016,02,18,10,30,8.20
2016,02,18,10,31,8.20
2016,02,18,10,32,8.20
2016,02,18,10,33,8.20
2016,02,18,10,34,8.20
2016,02,18,10,35,8.30
2016,02,18,10,36,8.40
2016,02,18,10,37,8.40
2016,02,18,10,38,8.50
2016,02,18,10,39,8.70
2016,02,18,10,40,8.80
2016,02,18,10,41,8.80
2016,02,18,10,42,8.80
2016,02,18,10,43,8.80
2016,02,18,10,44,8.70
2016,02,18,10,45,8.60
2016,02,18,10,46,8.50
2016,02,18,10,47,8.50
2016,02,18,10,48,8.40
2016,02,18,10,49,8.30
2016,02,18,10,50,8.30
2016,02,18,10,51,8.30
2016,02,18,10,52,8.30
2016,02,18,10,53,8.20
2016,02,18,10,54,8.20
2016,02,18,10,55,8.20
2016,02,18,10,56,8.20
2016,02,18,10,57,8.20
2016,02,18,10,58,8.20
2016,02,18,10,59,8.20
2016,02,18,11,00,8.20
2016,02,18,11,01,8.20
2016,02,18,11,02,8.20
2016,02,18,11,03,8.20
2016,02,18,11,04,8.20
2016,02,18,11,05,8.20
2016,02,18,11,06,8.20
2016,02,18,11,07,8.20
2016,02,18,11,08,8.20
2016,02,18,11,09,8.20
2016,02,18,11,10,8.20
2016,02,18,11,11,8.20
2016,02,18,11,12,8.20
2016,02,18,11,13,8.20
2016,02,18,11,14,8.20
2016,02,18,11,15,8.30
2016,02,18,11,16,8.30
2016,02,18,11,17,8.30
2016,02,18,11,18,8.30
2016,02,18,11,19,8.30
2016,02,18,11,20,8.40
2016,02,18,11,21,8.30
2016,02,18,11,22,8.40
2016,02,18,11,23,8.40
2016,02,18,11,24,8.40
2016,02,18,11,25,8.40
2016,02,18,11,26,8.40
2016,02,18,11,27,8.50
2016,02,18,11,28,8.50
2016,02,18,11,29,8.50
2016,02,18,11,30,8.60
2016,02,18,11,31,8.60
2016,02,18,11,32,8.70
2016,02,18,11,33,8.70
2016,02,18,11,34,8.70
2016,02,18,11,35,8.70
2016,02,18,11,36,8.70
2016,02,18,11,37,8.80
2016,02,18,11,38,8.80
2016,02,18,11,39,8.80
2016,02,18,11,40,8.80
2016,02,18,11,41,8.70
2016,02,18,11,42,8.70
2016,02,18,11,43,8.70
2016,02,18,11,44,8.60
2016,02,18,11,45,8.60
2016,02,18,11,46,8.60
2016,02,18,11,47,8.50
2016,02,18,11,48,8.50
2016,02,18,11,49,8.50
2016,02,18,11,50,8.50
2016,02,18,11,51,8.50
2016,02,18,11,52,8.40
2016,02,18,11,53,8.40
2016,02,18,11,54,8.40
2016,02,18,11,55,8.40
2016,02,18,11,56,8.40
2016,02,18,11,57,8.40
2016,02,18,11,58,8.40
2016,02,18,11,59,8.40
2016,02,18,12,00,8.50
2016,02,18,12,01,8.50
2016,02,18,12,02,8.50
2016,02,18,12,03,8.50
2016,02,18,12,04,8.40
2016,02,18,12,05,8.40
2016,02,18,12,06,8.40
2016,02,18,12,07,8.50
2016,02,18,12,08,8.50
2016,02,18,12,09,8.50
2016,02,18,12,10,8.50
2016,02,18,12,11,8.60
2016,02,18,12,12,8.60
2016,02,18,12,13,8.70
2016,02,18,12,14,8.70
2016,02,18,12,15,8.70
2016,02,18,12,16,8.70
2016,02,18,12,17,8.70
2016,02,18,12,18,8.70
2016,02,18,12,19,8.70
2016,02,18,12,20,8.70
2016,02,18,12,21,8.70
2016,02,18,12,22,8.70
2016,02,18,12,23,8.70
2016,02,18,12,24,8.70
2016,02,18,12,25,8.70
2016,02,18,12,26,8.70
2016,02,18,12,27,8.70
2016,02,18,12,28,8.70
2016,02,18,12,29,8.80
2016,02,18,12,30,8.80
2016,02,18,12,31,8.80
2016,02,18,12,32,8.80
2016,02,18,12,33,8.90
2016,02,18,12,34,8.90
2016,02,18,12,35,8.90
2016,02,18,12,36,8.90
2016,02,18,12,37,8.90
2016,02,18,12,38,8.90
2016,02,18,12,39,8.90
2016,02,18,12,40,8.90
2016,02,18,12,41,8.90
2016,02,18,12,42,8.80
2016,02,18,12,43,8.80
2016,02,18,12,44,8.80
2016,02,18,12,45,8.80
2016,02,18,12,46,8.70
2016,02,18,12,47,8.70
2016,02,18,12,48,8.70
2016,02,18,12,49,8.70
2016,02,18,12,50,8.70
2016,02,18,12,51,8.70
2016,02,18,12,52,8.70
2016,02,18,12,53,8.70
2016,02,18,12,54,8.80
2016,02,18,12,55,8.80
2016,02,18,12,56,8.90
2016,02,18,12,57,8.90
2016,02,18,12,58,9.00
2016,02,18,12,59,9.10
2016,02,18,13,00,9.20
2016,02,18,13,01,9.20
2016,02,18,13,02,9.20
2016,02,18,13,03,9.20
2016,02,18,13,04,9.20
2016,02,18,13,05,9.20
2016,02,18,13,06,9.20
2016,02,18,13,07,9.20
2016,02,18,13,08,9.20
2016,02,18,13,09,9.20
2016,02,18,13,10,9.20
2016,02,18,13,11,9.20
2016,02,18,13,12,9.20
2016,02,18,13,13,9.20
2016,02,18,13,14,9.20
2016,02,18,13,15,9.20
2016,02,18,13,16,9.20
2016,02,18,13,17,9.20
2016,02,18,13,18,9.20
2016,02,18,14,08,7.90
2016,02,18,14,09,8.00
2016,02,18,14,10,8.00
2016,02,18,14,11,8.10
2016,02,18,14,12,8.10
2016,02,18,14,13,8.20
2016,02,18,14,14,8.20
2016,02,18,14,15,8.20
2016,02,18,14,16,8.20
2016,02,18,14,17,8.20
2016,02,18,14,18,8.20
2016,02,18,14,19,8.20
2016,02,18,14,20,8.30
2016,02,18,14,21,8.30
2016,02,18,14,22,8.30
2016,02,18,14,23,8.30
2016,02,18,14,24,8.30
2016,02,18,14,25,8.40
2016,02,18,14,26,8.40
2016,02,18,14,27,8.40
2016,02,18,14,28,8.40
2016,02,18,14,29,8.40
2016,02,18,14,30,8.40
2016,02,18,14,31,8.30
2016,02,18,14,32,8.30
2016,02,18,14,33,8.40
2016,02,18,14,34,8.40
2016,02,18,14,35,8.40
2016,02,18,14,36,8.40
2016,02,18,14,37,8.40
2016,02,18,14,38,8.40
2016,02,18,14,39,8.40
2016,02,18,14,40,8.40
2016,02,18,14,41,8.40
2016,02,18,14,42,8.40
2016,02,18,14,43,8.40
2016,02,18,14,44,8.40
2016,02,18,14,45,8.40
2016,02,18,14,46,8.40
2016,02,18,14,47,8.40
2016,02,18,15,54,8.70
2016,02,18,15,55,8.70
2016,02,18,15,56,8.70
2016,02,18,15,57,8.70
2016,02,18,15,58,8.70
2016,02,18,15,59,8.70
2016,02,18,16,00,8.80
2016,02,18,16,01,8.80
2016,02,18,16,02,8.80
2016,02,18,16,03,8.90
2016,02,18,16,04,8.90
2016,02,18,16,05,8.90
2016,02,18,16,06,8.90
2016,02,18,16,07,8.90
2016,02,18,16,08,9.00
2016,02,18,16,09,9.00
2016,02,18,16,10,9.00
2016,02,18,16,11,9.00
2016,02,18,16,12,9.00
2016,02,18,16,13,9.00
2016,02,18,16,14,9.00
2016,02,18,16,15,9.00
2016,02,18,16,16,9.00
2016,02,18,16,17,9.00
2016,02,18,16,18,9.00
2016,02,18,16,19,9.00
2016,02,18,16,20,9.00
2016,02,18,16,21,9.00
